THORAD AGENA D DEB, 42547

Orbit data source: Space-Track

THORAD AGENA D DEB, 42547 is space debris in SSO originally from a launch on Wed, 08 Apr 1970 UTC launched from the Air Force Western Test Range (AFWTR). Debris objects in space refer to the collection of defunct objects orbiting the Earth. Examples of debris include non-operational satellites, rocket bodies, and fragments generated from explosions, collisions, or faulty payload assembly.

Loading next visibility...
Identifier
42547, 1970-025TD
Orbit
SSO
Country
Flag of USUS
Related business
Manufacturer
Unknown
Mission
Spacecraft
Bus & Motor
Unknown
Mass
Unknown
Launch date (UTC)
1970-04-08 (56 years ago)
Launch vehicle
Unknown
Launch site
Air Force Western Test Range (AFWTR)
Object type
Payload
Rocket body
Debris
Shape & HBR
Unknown shape, 0.1 m
Radar Cross Section
Small (<0.1 m²)

Expand to show TLE details & history
Last TLE update: 1 day ago

TLE from 1 day ago
0 THORAD AGENA D DEB
1 42547U 70025TD  25295.44584646  .00001954  00000-0  17948-2 0  9990
2 42547 100.1706 283.4656 0014897   1.1133 359.0049 13.84231327599693
Epoch: 2025-10-22T10:42Z
TLE epoch observation values (Epoch: 2025-10-22T10:42:01.134Z)
Latitude
-0.00005°
Longitude
91.84154°
Altitude
940.817 km
Speed
7.387 km/s
True Right ascension
18h 53m 51s
True Declination
0° 00' 00"
Sunlit
Object was in daylight at epoch
Visualization orbit readout
Latitude
Unknown
Longitude
Unknown
Altitude
Unknown
Speed
Unknown
Apparent Right ascension
Unknown
Apparent Declination
Unknown
Sunlit
N/A
Visualization observer readout
Local Sidereal Time
13:11:14
Azimuth
Unknown
Elevation
Unknown
Doppler factor
Unknown
Orbital elements
Apogee altitude
957.109 km
Perigee altitude
935.287 km
Semi-major axis
7,324.335 km
Eccentricity
0.00149
Inclination
100.1706°
RAAN
283.4656°
Arg. of periapsis
1.1133°
True anomaly
359.00193°
Mean anomaly
359.0049°
Eccentric anomaly
359.00342°
Mean motion
3.46251 °/min
Orbital period
103.97 mins
BSTAR
0.0017948

Documentation

Showing up to 5 results
|